1489197600.84,58346,7.63,73078.5,-12.11,-19.17,-20.35,0,*65
1489197602.13,58347,7.63,73072.5,-12.11,-19.61,-20.83,0,*68
1489197603.34,58348,7.63,73076.8,-12.09,-20.25,-21.47,0,*6D
1489197604.63,58349,7.63,73086.0,-12.11,-20.19,-21.27,0,*6C
1489197605.92,58350,7.63,73082.5,-12.11,-20.19,-21.03,0,*62
1489197607.19,58351,7.63,73078.3,-12.11,-19.65,-20.73,0,*64
1489197608.42,58352,7.63,73074.5,-12.11,-20.05,-21.17,0,*68
1489197609.68,58353,7.63,73074.8,-12.11,-20.39,-21.57,0,*62
1489197610.97,58354,7.63,73072.0,-12.11,-20.19,-21.27,0,*60
1489197612.24,58355,7.63,73072.8,-12.11,-20.69,-21.67,0,*62
1489197613.5,58356,7.63,73072.5,-12.11,-20.83,-21.77,0,*64
1489197614.72,58357,7.63,73062.8,-12.09,-19.47,-20.09,0,*66
1489197616.0,58358,7.63,73070.3,-12.11,-18.89,-19.81,0,*69
1489197617.24,58359,7.63,73070.3,-12.11,-19.17,-20.69,0,*62
1489197618.45,58360,7.63,73070.0,-12.09,-20.05,-21.17,0,*60
1489197619.68,58361,7.63,73066.0,-12.09,-20.19,-21.17,0,*6C
1489197620.94,58362,7.63,73070.3,-12.09,-20.53,-21.57,0,*65
1489197622.2,58363,7.63,73066.8,-12.09,-20.83,-21.67,0,*6A
1489197623.47,58364,7.63,73070.0,-12.11,-20.73,-21.67,0,*6B
1489197624.73,58365,7.63,73068.0,-12.11,-20.83,-21.77,0,*64
1489197625.97,58366,7.63,73066.8,-12.11,-20.89,-21.77,0,*6D
1489197627.22,58367,7.63,73064.5,-12.11,-20.89,-21.93,0,*66
1489197628.51,58368,7.63,73070.0,-12.11,-20.99,-21.97,0,*6C
1489197629.77,58369,7.63,73064.8,-12.11,-20.89,-21.83,0,*69
1489197631.02,58370,7.63,73070.8,-12.11,-20.89,-21.93,0,*60
1489197632.28,58371,7.63,73070.5,-12.11,-20.69,-21.33,0,*65
1489197633.57,58372,7.63,73060.8,-12.11,-19.81,-20.53,0,*6D
1489197634.85,58373,7.63,73068.0,-12.11,-20.49,-21.57,0,*67
1489197636.09,58374,7.63,73074.8,-12.09,-20.69,-21.67,0,*68
1489197637.35,58375,7.63,73066.0,-12.11,-20.83,-21.77,0,*65
1489197638.56,58376,7.63,73068.8,-12.09,-20.63,-21.63,0,*64
1489197639.85,58377,7.63,73072.0,-12.11,-20.83,-21.67,0,*66
1489197641.11,58378,7.63,73072.5,-12.11,-20.69,-21.57,0,*6E
1489197642.38,58379,7.63,73060.8,-12.11,-19.91,-20.53,0,*67
1489197643.59,58380,7.63,73060.0,-12.09,-19.03,-19.91,0,*67
1489197644.89,58381,7.63,73066.8,-12.11,-19.27,-20.35,0,*6D
1489197646.16,58382,7.63,73060.3,-12.11,-19.17,-20.35,0,*6D
1489197647.39,58383,7.63,73068.5,-12.11,-18.49,-19.03,0,*69
1489197648.63,58384,7.63,73074.3,-12.11,-18.21,-19.75,0,*61
1489197649.88,58385,7.63,73070.0,-12.11,-19.17,-20.69,0,*63
1489197651.12,58386,7.63,73074.8,-12.09,-19.95,-21.03,0,*6E
1489197652.35,58387,7.63,73076.0,-12.11,-20.25,-21.43,0,*63
1489197653.58,58388,7.63,73078.3,-12.09,-20.53,-21.47,0,*60
1489197654.8,58389,7.63,73076.3,-12.09,-20.63,-21.77,0,*61
1489197656.01,58390,7.63,73078.8,-12.09,-20.63,-21.63,0,*6C
1489197657.24,58391,7.63,73074.3,-12.11,-20.69,-21.43,0,*6C
1489197658.52,58392,7.63,73082.0,-12.11,-20.49,-21.57,0,*68
1489197659.79,58393,7.63,73076.3,-12.11,-20.69,-21.67,0,*68
1489197661.05,58394,7.63,73074.3,-12.09,-20.83,-21.83,0,*68
1489197662.27,58395,7.63,73080.0,-12.09,-20.89,-21.93,0,*62
1489197663.48,58396,7.63,73080.5,-12.09,-20.89,-21.93,0,*61
1489197664.75,58397,7.63,73074.5,-12.11,-20.99,-21.93,0,*68
1489197665.99,58398,7.63,73076.0,-12.11,-20.89,-21.93,0,*66
1489197667.26,58399,7.63,73076.0,-12.11,-20.99,-21.93,0,*66
1489197668.5,58400,7.63,73076.5,-12.11,-20.89,-21.93,0,*60
1489197669.75,58401,7.63,73078.0,-12.11,-20.89,-21.77,0,*6B
1489197671.01,58402,7.63,73078.5,-12.11,-20.63,-21.57,0,*6E
1489197672.29,58403,7.63,73082.0,-12.11,-20.35,-21.33,0,*6E
1489197673.53,58404,7.63,73084.0,-12.11,-20.63,-21.63,0,*6F
1489197674.79,58405,7.63,73082.5,-12.09,-20.19,-21.27,0,*6A
1489197676.05,58406,7.63,73078.5,-12.11,-20.63,-21.67,0,*69
1489197677.34,58407,7.63,73084.0,-12.11,-20.35,-21.33,0,*6A
1489197678.6,58408,7.63,73078.0,-12.11,-20.63,-21.67,0,*67
1489197679.87,58409,7.63,73074.5,-12.11,-20.83,-21.77,0,*69
1489197681.13,58410,7.63,73080.3,-12.13,-20.83,-21.83,0,*68
1489197682.35,58411,7.63,73082.3,-12.13,-20.63,-21.63,0,*69
1489197683.56,58412,7.63,73082.5,-12.13,-20.73,-21.77,0,*6E
1489197684.77,58413,7.63,73082.5,-12.13,-20.73,-21.77,0,*6F
1489197686.03,58414,7.63,73084.5,-12.11,-20.49,-21.17,0,*65
1489197687.26,58415,7.63,73082.3,-12.13,-19.95,-20.89,0,*6B
1489197688.52,58416,7.63,73084.0,-12.13,-20.19,-21.33,0,*66
1489197689.73,58417,7.63,73086.0,-12.13,-20.39,-21.43,0,*62
1489197690.99,58418,7.63,73082.3,-12.13,-20.49,-21.57,0,*6F
1489197692.25,58419,7.63,73086.3,-12.13,-20.53,-21.57,0,*65
1489197693.45,58420,7.63,73088.3,-12.17,-20.73,-21.73,0,*6F
1489197694.69,58421,7.63,73086.8,-12.17,-20.73,-21.83,0,*61
1489197695.9,58422,7.63,73086.8,-12.13,-20.63,-21.63,0,*69
1489197697.14,58423,7.63,73086.0,-12.17,-20.69,-21.67,0,*62
1489197698.35,58424,7.63,73090.5,-12.13,-20.69,-21.77,0,*60
1489197699.56,58425,7.63,73086.8,-12.13,-20.69,-21.63,0,*64
1489197700.77,58426,7.63,73090.3,-12.13,-20.63,-21.63,0,*6D
1489197701.98,58427,7.63,73090.8,-12.13,-20.73,-21.77,0,*68
1489197703.24,58428,7.63,73078.3,-12.17,-19.85,-20.79,0,*6F
1489197704.48,58429,7.63,73088.0,-12.13,-20.05,-21.27,0,*62
1489197705.71,58430,7.63,73086.3,-12.17,-20.29,-21.03,0,*66
1489197706.95,58431,7.63,73084.5,-12.17,-19.85,-20.89,0,*68
1489197708.21,58432,7.63,73082.3,-12.17,-20.15,-21.33,0,*68
1489197709.47,58433,7.63,73084.8,-12.17,-20.15,-21.33,0,*69
1489197710.68,58434,7.63,73084.5,-12.17,-20.39,-21.47,0,*63
1489197711.9,58435,7.63,73082.8,-12.17,-20.39,-21.39,0,*6B
1489197713.14,58436,7.63,73082.0,-12.17,-19.31,-20.25,0,*66
1489197714.36,58437,7.63,73082.8,-12.17,-19.17,-20.69,0,*6B
1489197715.59,58438,7.63,73080.5,-12.17,-18.55,-19.07,0,*61
1489197716.8,58439,7.63,73084.3,-12.17,-17.87,-18.79,0,*68
1489197718.01,58440,7.63,73082.5,-12.17,-17.69,-18.73,0,*6C
1489197719.22,58441,7.63,73082.5,-12.13,-17.69,-18.49,0,*60
1489197720.43,58442,7.63,73082.0,-12.13,-18.11,-18.69,0,*61
1489197721.68,58443,7.63,73084.0,-12.17,-18.31,-19.47,0,*6B
1489197722.89,58444,7.63,73084.5,-12.13,-18.73,-20.05,0,*62
1489197724.11,58445,7.63,73078.8,-12.13,-18.99,-20.09,0,*6B
1489197725.33,58446,7.63,73082.5,-12.17,-19.37,-20.73,0,*64
1489197726.56,58447,7.63,73082.5,-12.13,-20.05,-20.83,0,*65
1489197727.8,58448,7.63,73078.0,-12.13,-20.05,-20.83,0,*6A
1489197729.05,58449,7.63,73078.3,-12.17,-19.81,-20.79,0,*6C
1489197730.29,58450,7.63,73076.3,-12.17,-19.91,-20.83,0,*60
1489197731.5,58451,7.63,73076.8,-12.17,-19.47,-19.95,0,*67
1489197732.73,58452,7.63,73080.5,-12.17,-19.37,-20.73,0,*61
1489197733.94,58453,7.63,73078.5,-12.17,-20.25,-21.47,0,*6F
1489197735.17,58454,7.63,73078.3,-12.17,-20.53,-21.63,0,*6F
1489197736.41,58455,7.63,73082.8,-12.17,-20.69,-21.67,0,*63
1489197737.62,58456,7.63,73076.8,-12.17,-20.73,-21.73,0,*6E
1489197738.83,58457,7.63,73080.0,-12.13,-20.69,-21.77,0,*64
1489197740.04,58458,7.63,73078.3,-12.17,-20.69,-21.73,0,*6B
1489197741.27,58459,7.63,73078.5,-12.13,-20.69,-21.67,0,*6B
1489197742.48,58460,7.63,73080.5,-12.17,-20.73,-21.73,0,*6B
1489197743.69,58461,7.63,73086.5,-12.17,-20.69,-21.73,0,*61
1489197744.95,58462,7.63,73080.3,-12.17,-20.79,-21.83,0,*6C
1489197746.21,58463,7.63,73078.5,-12.17,-20.79,-21.87,0,*69
1489197747.48,58464,7.63,73082.3,-12.17,-20.79,-21.87,0,*6E
1489197748.71,58465,7.63,73078.3,-12.17,-20.69,-21.83,0,*6A
1489197749.95,58466,7.63,73070.8,-12.17,-20.93,-21.87,0,*68
1489197751.25,58467,7.63,73072.8,-12.19,-20.83,-21.87,0,*66
1489197752.45,58468,7.63,73072.5,-12.17,-20.73,-21.73,0,*63
1489197753.69,58469,7.63,73070.3,-12.17,-20.73,-21.67,0,*67
1489197754.9,58470,7.63,73070.8,-12.17,-20.69,-21.39,0,*6F
1489197756.19,58471,7.63,73076.0,-12.19,-20.15,-21.27,0,*64
1489197757.46,58472,7.63,73072.3,-12.19,-19.57,-21.39,0,*64
1489197758.73,58473,7.63,73070.5,-12.19,-19.75,-21.53,0,*69
1489197759.98,58474,7.63,73072.5,-12.17,-19.99,-21.23,0,*65
1489197761.22,58475,7.63,73070.3,-12.19,-19.91,-20.59,0,*6E
1489197762.5,58476,7.63,73074.3,-12.19,-19.27,-18.73,0,*63
1489197763.79,58477,7.63,73074.5,-12.19,-17.25,-16.69,0,*6B
1489197765.05,58478,7.63,73080.8,-12.19,-15.89,-16.37,0,*6B
1489197766.26,58479,7.63,73072.5,-12.17,-15.49,-16.97,0,*62
1489197767.51,58480,7.63,73082.5,-12.17,-15.75,-17.41,0,*61
1489197768.72,58481,7.63,73082.3,-12.17,-15.29,-16.03,0,*6E
1489197769.97,58482,7.63,73076.0,-12.17,-14.47,-15.71,0,*62
1489197771.21,58483,7.63,73078.8,-12.17,-14.55,-16.37,0,*61
1489197772.44,58484,7.63,73076.5,-12.13,-14.69,-17.17,0,*6E
1489197773.67,58485,7.63,73072.5,-12.17,-15.57,-18.69,0,*61
1489197774.88,58486,7.63,73080.3,-12.17,-16.37,-18.41,0,*6D
1489197776.09,58487,7.63,73076.3,-12.13,-16.59,-18.41,0,*60
1489197777.31,58488,7.63,73082.3,-12.17,-16.83,-19.51,0,*6C
1489197778.52,58489,7.63,73078.3,-12.17,-18.25,-20.69,0,*6E
1489197779.73,58490,7.63,73074.3,-12.13,-18.73,-20.69,0,*61
1489197780.98,58491,7.63,73076.5,-12.13,-18.83,-20.49,0,*6D
1489197782.2,58492,7.63,73078.0,-12.13,-18.99,-20.73,0,*6C
1489197783.44,58493,7.63,73080.5,-12.13,-18.99,-20.99,0,*69
1489197784.66,58494,7.63,73086.8,-12.17,-19.03,-21.17,0,*6F
1489197785.9,58495,7.63,73084.3,-12.17,-19.17,-20.79,0,*62
1489197787.11,58496,7.63,73084.0,-12.17,-18.73,-20.09,0,*65
1489197788.38,58497,7.63,73086.8,-12.11,-18.25,-19.81,0,*6B
1489197789.61,58498,7.63,73086.8,-12.13,-18.55,-20.09,0,*6B
1489197790.83,58499,7.63,73086.8,-12.17,-18.73,-20.25,0,*64
1489197792.06,58500,7.63,73086.0,-12.17,-19.17,-20.59,0,*6D
1489197793.33,58501,7.63,73084.0,-12.13,-19.57,-20.83,0,*6B
1489197794.54,58502,7.63,73084.8,-12.13,-20.05,-21.17,0,*69
1489197795.77,58503,7.63,73080.0,-12.13,-20.39,-21.57,0,*63
1489197797.01,58504,7.63,73082.8,-12.17,-20.69,-21.67,0,*66
1489197798.25,58505,7.63,73076.8,-12.13,-20.69,-21.83,0,*69
1489197799.46,58506,7.63,73080.0,-12.17,-20.59,-21.63,0,*63
1489197800.73,58507,7.63,73078.5,-12.17,-20.53,-21.67,0,*6C
1489197801.96,58508,7.63,73076.8,-12.17,-20.53,-21.73,0,*66
1489197803.21,58509,7.63,73076.0,-12.17,-20.59,-21.67,0,*68
1489197804.42,58510,7.63,73076.5,-12.13,-20.73,-21.63,0,*68
1489197805.66,58511,7.63,73078.0,-12.17,-20.39,-21.33,0,*66
1489197806.89,58512,7.63,73080.5,-12.13,-20.35,-21.47,0,*6E
1489197808.14,58513,7.63,73086.0,-12.13,-20.49,-21.57,0,*65
1489197809.41,58514,7.63,73080.0,-12.13,-20.19,-21.27,0,*60
1489197810.62,58515,7.63,73084.5,-12.17,-20.39,-21.39,0,*68
1489197811.86,58516,7.63,73082.5,-12.13,-20.39,-21.33,0,*65
1489197813.1,58517,7.63,73088.5,-12.17,-20.25,-21.23,0,*6C
1489197814.31,58518,7.63,73088.3,-12.17,-20.25,-21.13,0,*60
1489197815.53,58519,7.63,73092.8,-12.17,-19.95,-20.69,0,*6C
1489197816.75,58520,7.63,73084.3,-12.17,-19.91,-20.73,0,*69
1489197817.99,58521,7.63,73080.5,-12.13,-19.95,-20.53,0,*6A
1489197819.21,58522,7.63,73076.0,-12.17,-20.25,-21.17,0,*6D
1489197820.42,58523,7.63,73080.8,-12.17,-20.25,-21.39,0,*60
1489197821.65,58524,7.63,73086.3,-12.13,-20.25,-21.33,0,*69
1489197822.86,58525,7.63,73082.0,-12.17,-20.39,-21.47,0,*62
1489197824.08,58526,7.63,73086.5,-12.17,-20.39,-21.47,0,*61
1489197825.28,58527,7.63,73084.0,-12.17,-20.29,-21.47,0,*61
1489197826.49,58528,7.63,73090.5,-12.13,-20.39,-21.43,0,*6F
1489197827.71,58529,7.63,73094.5,-12.17,-20.43,-21.39,0,*6A
1489197828.95,58530,7.63,73090.0,-12.17,-20.25,-21.33,0,*68
1489197830.18,58531,7.63,73086.8,-12.17,-20.39,-21.33,0,*64
1489197831.42,58532,7.63,73090.5,-12.13,-20.25,-21.27,0,*6B
1489197832.64,58533,7.63,73090.5,-12.17,-20.25,-21.17,0,*6D
1489197833.85,58534,7.63,73092.5,-12.17,-20.25,-21.17,0,*6A
1489197835.09,58535,7.63,73080.5,-12.17,-20.25,-21.23,0,*6C
1489197836.31,58536,7.63,73088.5,-12.17,-20.25,-21.17,0,*68
1489197837.55,58537,7.63,73088.0,-12.17,-20.25,-21.23,0,*6E
1489197838.79,58538,7.63,73086.3,-12.17,-20.25,-21.23,0,*61
1489197840.05,58539,7.63,73084.0,-12.13,-20.19,-21.03,0,*69
1489197841.29,58540,7.63,73084.0,-12.17,-20.25,-21.03,0,*6C
1489197842.52,58541,7.63,73084.8,-12.17,-20.15,-21.09,0,*64
1489197843.75,58542,7.63,73090.0,-12.17,-20.29,-21.33,0,*61
1489197844.99,58543,7.63,73084.8,-12.17,-20.43,-21.53,0,*6A
1489197846.23,58544,7.63,73084.3,-12.17,-20.53,-21.39,0,*60
1489197847.43,58545,7.63,73088.0,-12.17,-20.25,-21.09,0,*63
1489197848.67,58546,7.63,73086.5,-12.19,-19.91,-20.29,0,*68
1489197849.91,58547,7.63,73072.5,-12.17,-18.79,-18.93,0,*6A
1489197851.13,58548,7.63,73074.3,-12.17,-18.41,-18.69,0,*6B
1489197852.34,58549,7.63,73072.0,-12.17,-18.45,-18.69,0,*6E
1489197853.58,58550,7.63,73070.8,-12.17,-18.41,-18.93,0,*67
1489197854.79,58551,7.63,73074.8,-12.17,-18.45,-19.37,0,*6D
1489197856.0,58552,7.63,73068.8,-12.13,-18.49,-18.99,0,*63
1489197857.25,58553,7.63,73070.8,-12.17,-17.97,-18.11,0,*6A
1489197858.46,58554,7.63,73070.5,-12.17,-16.93,-17.35,0,*61
1489197859.74,58555,7.63,73064.8,-12.17,-16.65,-17.07,0,*68
1489197861.0,58556,7.63,73060.8,-12.13,-16.51,-16.65,0,*6D
1489197862.27,58557,7.63,73058.0,-12.17,-15.85,-16.09,0,*68
1489197863.51,58558,7.63,73056.3,-12.13,-15.67,-16.17,0,*60
1489197864.75,58559,7.63,73054.3,-12.17,-15.89,-16.59,0,*6F
1489197866.02,58560,7.63,73066.8,-12.17,-16.09,-17.41,0,*66
1489197867.26,58561,7.63,73068.5,-12.17,-17.49,-18.89,0,*69
1489197868.52,58562,7.63,73068.3,-12.11,-18.83,-20.19,0,*67
1489197869.79,58563,7.63,73062.0,-12.13,-19.65,-20.83,0,*6E
1489197871.05,58564,7.63,73056.5,-12.13,-19.41,-20.35,0,*62
1489197872.29,58565,7.63,73054.5,-12.13,-18.49,-19.27,0,*63
1489197873.51,58566,7.63,73056.0,-12.13,-17.49,-18.07,0,*6C
1489197874.75,58567,7.63,73072.5,-12.13,-17.59,-18.07,0,*6C
1489197875.99,58568,7.63,73088.0,-12.13,-17.59,-18.11,0,*64
1489197877.23,58569,7.63,73060.5,-12.13,-18.21,-18.35,0,*63
1489197878.45,58570,7.63,73062.3,-12.13,-18.49,-18.11,0,*63
1489197879.66,58571,7.63,73062.8,-12.13,-18.41,-19.03,0,*68
1489197880.92,58572,7.63,73052.3,-12.13,-19.41,-20.35,0,*65
1489197882.16,58573,7.63,73058.8,-12.13,-19.95,-21.03,0,*69
1489197883.43,58574,7.56,73062.5,-12.17,-20.15,-21.23,0,*6A
1489197884.67,58575,7.63,73066.8,-12.17,-20.25,-21.23,0,*68
1489197885.91,58576,7.63,73070.0,-12.17,-20.39,-21.33,0,*67
1489197887.14,58577,7.63,73064.5,-12.13,-20.35,-21.43,0,*69
1489197888.37,58578,7.63,73064.8,-12.11,-20.39,-21.43,0,*68
1489197889.61,58579,7.56,73064.5,-12.17,-20.43,-21.33,0,*65
1489197890.88,58580,7.63,73070.0,-12.13,-20.19,-21.27,0,*6D
1489197892.11,58581,7.63,73072.8,-12.13,-20.25,-21.33,0,*66
1489197893.33,58582,7.56,73060.0,-12.17,-20.39,-21.39,0,*66
1489197894.56,58583,7.56,73064.3,-12.13,-20.19,-21.43,0,*6C
1489197895.8,58584,7.56,73072.0,-12.13,-20.39,-21.33,0,*6E
1489197897.04,58585,7.63,73066.8,-12.13,-20.15,-20.63,0,*65
1489197898.31,58586,7.63,73070.5,-12.13,-19.61,-20.99,0,*6A
1489197899.56,58587,7.63,73068.3,-12.17,-20.15,-21.33,0,*67
1489197900.77,58588,7.63,73072.5,-12.17,-20.25,-21.39,0,*61
1489197901.98,58589,7.63,73074.0,-12.17,-20.29,-21.39,0,*6C
1489197903.19,58590,7.63,73068.0,-12.13,-20.39,-21.43,0,*6C
1489197904.44,58591,7.56,73064.0,-12.13,-20.35,-21.33,0,*66
1489197905.65,58592,7.63,73076.3,-12.13,-20.09,-21.13,0,*68
1489197906.88,58593,7.63,73070.8,-12.17,-20.29,-21.53,0,*6B
1489197908.1,58594,7.63,73070.0,-12.17,-20.43,-21.39,0,*6C
1489197909.3,58595,7.63,73078.3,-12.17,-20.29,-21.39,0,*61
1489197910.51,58596,7.63,73076.3,-12.13,-20.25,-21.47,0,*63
1489197911.75,58597,7.63,73078.3,-12.13,-20.19,-21.17,0,*68
1489197912.98,58598,7.63,73082.0,-12.17,-20.25,-21.33,0,*6A
1489197914.21,58599,7.63,73072.5,-12.17,-20.29,-21.33,0,*67
1489197915.44,58600,7.63,73076.0,-12.13,-20.05,-20.83,0,*64
1489197916.69,58601,7.63,73074.3,-12.17,-19.37,-20.53,0,*67
1489197917.91,58602,7.63,73078.0,-12.17,-19.99,-21.17,0,*61
1489197919.11,58603,7.63,73078.3,-12.17,-20.29,-21.39,0,*6D
1489197920.33,58604,7.63,73076.8,-12.17,-20.43,-21.63,0,*69
1489197921.57,58605,7.63,73076.3,-12.17,-20.39,-21.53,0,*66
1489197922.8,58606,7.63,73078.5,-12.13,-20.35,-21.47,0,*68
1489197924.01,58607,7.63,73074.3,-12.17,-20.39,-21.47,0,*61
1489197925.23,58608,7.56,73074.0,-12.17,-20.43,-21.63,0,*65
1489197926.47,58609,7.63,73074.0,-12.17,-20.43,-21.53,0,*67
1489197927.73,58610,7.63,73078.3,-12.17,-20.53,-21.53,0,*6E
1489197929.02,58611,7.63,73076.3,-12.19,-20.49,-21.57,0,*6E
1489197930.27,58612,7.56,73076.0,-12.19,-20.35,-21.43,0,*63
1489197931.53,58613,7.63,73078.3,-12.19,-20.29,-21.27,0,*6D
1489197932.74,58614,7.63,73078.5,-12.17,-20.29,-21.47,0,*62
1489197933.98,58615,7.63,73076.5,-12.17,-20.39,-21.53,0,*67
1489197935.23,58616,7.56,73076.3,-12.19,-20.29,-21.53,0,*6B
1489197936.49,58617,7.63,73076.5,-12.19,-20.35,-21.43,0,*66
1489197937.73,58618,7.63,73080.8,-12.19,-20.43,-21.43,0,*68
1489197939.0,58619,7.63,73078.8,-12.19,-20.43,-21.53,0,*68
1489197940.28,58620,7.63,73078.3,-12.19,-20.35,-21.53,0,*63
1489197941.51,58621,7.63,73076.3,-12.17,-20.29,-21.33,0,*67
1489197942.77,58622,7.63,73086.0,-12.19,-20.35,-21.39,0,*6D
1489197944.0,58623,7.56,73082.0,-12.21,-20.35,-21.39,0,*67
1489197945.25,58624,7.63,73082.0,-12.19,-20.35,-21.39,0,*6B
1489197946.51,58625,7.56,73080.5,-12.19,-20.35,-21.39,0,*6A
1489197947.77,58626,7.63,73084.8,-12.19,-20.35,-21.43,0,*64
1489197949.04,58627,7.63,73084.3,-12.19,-20.43,-21.53,0,*65
1489197950.32,58628,7.63,73086.3,-12.19,-20.35,-21.57,0,*6F
1489197951.6,58629,7.63,73094.0,-12.19,-20.49,-21.57,0,*65
1489197952.86,58630,7.63,73086.0,-12.21,-20.49,-21.57,0,*66
1489197954.12,58631,7.63,73084.8,-12.21,-20.49,-21.67,0,*64
1489197955.36,58632,7.63,73084.0,-12.21,-20.43,-21.57,0,*6E
1489197956.62,58633,7.63,73086.0,-12.21,-20.49,-21.57,0,*65
1489197957.88,58634,7.63,73082.3,-12.21,-20.49,-21.57,0,*62
1489197959.14,58635,7.56,73084.5,-12.21,-20.49,-21.57,0,*63
1489197960.38,58636,7.63,73084.8,-12.21,-20.43,-21.57,0,*6A
1489197961.64,58637,7.63,73086.0,-12.21,-20.49,-21.67,0,*62
1489197962.88,58638,7.63,73088.5,-12.21,-20.63,-21.57,0,*66
1489197964.12,58639,7.56,73086.3,-12.21,-20.59,-21.57,0,*6E
1489197965.36,58640,7.63,73094.3,-12.21,-20.43,-21.53,0,*6F
1489197966.62,58641,7.56,73086.0,-12.21,-20.49,-21.67,0,*63
1489197967.89,58642,7.63,73086.8,-12.19,-20.59,-21.57,0,*69
1489197969.13,58643,7.63,73088.0,-12.21,-20.59,-21.67,0,*60
1489197970.38,58644,7.63,73080.3,-12.21,-20.59,-21.67,0,*67
1489197971.64,58645,7.56,73084.0,-12.23,-20.53,-21.63,0,*6A
1489197972.87,58646,7.63,73086.0,-12.23,-20.69,-21.73,0,*61
1489197974.11,58647,7.63,73084.3,-12.23,-20.69,-21.77,0,*64
1489197975.36,58648,7.56,73080.3,-12.21,-20.59,-21.67,0,*6B
1489197976.59,58649,7.56,73084.3,-12.23,-20.69,-21.77,0,*6A
1489197977.82,58650,7.56,73084.0,-12.23,-20.69,-21.73,0,*66
1489197979.06,58651,7.56,73084.3,-12.23,-20.63,-21.63,0,*6C
1489197980.29,58652,7.63,73090.0,-12.23,-20.69,-21.63,0,*65
1489197981.55,58653,7.56,73082.5,-12.23,-20.53,-21.63,0,*6D
1489197982.81,58654,7.56,73076.3,-12.23,-20.49,-21.63,0,*61
1489197984.07,58655,7.56,73076.5,-12.23,-20.53,-21.73,0,*6A
1489197985.33,58656,7.63,73088.5,-12.23,-20.53,-21.63,0,*68
1489197986.61,58657,7.63,73092.5,-12.23,-20.35,-21.33,0,*6C
1489197987.89,58658,7.63,73084.0,-12.23,-20.35,-21.03,0,*60
1489197989.15,58659,7.63,73084.5,-12.23,-19.81,-20.69,0,*69
1489197990.42,58660,7.63,73076.3,-12.23,-19.27,-20.09,0,*69
1489197991.71,58661,7.56,73088.3,-12.23,-18.55,-19.41,0,*6A
1489197992.95,58662,7.63,73094.3,-12.23,-18.21,-19.17,0,*69
1489197994.21,58663,7.63,73080.3,-12.23,-18.25,-19.41,0,*6F
1489197995.44,58664,7.63,73076.3,-12.23,-18.25,-18.49,0,*61
1489197996.71,58665,7.56,73082.5,-12.23,-17.49,-17.97,0,*69
1489197997.98,58666,7.63,73086.3,-12.23,-17.97,-18.69,0,*67
1489197999.22,58667,7.56,73074.8,-12.23,-18.79,-20.09,0,*64
1489198000.51,58668,7.56,73074.8,-12.23,-19.41,-20.49,0,*65
1489198001.79,58669,7.56,73076.0,-12.23,-19.81,-20.99,0,*65
1489198003.06,58670,7.63,73074.3,-12.23,-19.95,-21.27,0,*6C
1489198004.29,58671,7.63,73076.3,-12.23,-20.25,-21.43,0,*6E
1489198005.55,58672,7.56,73068.0,-12.23,-20.05,-21.33,0,*68
1489198006.82,58673,7.63,73072.8,-12.23,-19.71,-20.49,0,*6C
1489198008.09,58674,7.63,73072.3,-12.23,-19.31,-20.69,0,*6D
1489198009.37,58675,7.56,73074.5,-12.23,-19.81,-21.03,0,*6A
1489198010.63,58676,7.63,73078.5,-12.23,-19.41,-20.09,0,*6E
1489198011.91,58677,7.56,73072.8,-12.21,-19.65,-20.49,0,*6F
1489198013.15,58678,7.63,73078.5,-12.21,-19.41,-20.43,0,*6C
1489198014.42,58679,7.63,73078.8,-12.23,-19.27,-19.91,0,*6A
1489198015.66,58680,7.63,73082.5,-12.23,-19.03,-20.05,0,*6D
1489198016.9,58681,7.63,73072.5,-12.23,-18.49,-19.13,0,*6E
1489198018.19,58682,7.63,73076.5,-12.23,-17.21,-17.59,0,*6C
1489198019.45,58683,7.63,73082.8,-12.23,-17.03,-18.41,0,*6B
1489198020.7,58684,7.56,73080.0,-12.23,-17.59,-18.25,0,*61
1489198021.97,58685,7.56,73084.3,-12.23,-16.59,-16.69,0,*67
1489198023.25,58686,7.56,73074.3,-12.23,-15.57,-16.27,0,*63
1489198024.52,58687,7.63,73070.3,-12.23,-15.29,-16.69,0,*61
1489198025.78,58688,7.63,73082.5,-12.23,-15.15,-17.17,0,*69
1489198027.04,58689,7.56,73076.0,-12.23,-15.53,-17.63,0,*69
1489198028.3,58690,7.56,73076.0,-12.23,-15.71,-17.45,0,*65
1489198029.52,58691,7.56,73074.5,-12.21,-15.49,-16.41,0,*68
1489198030.73,58692,7.63,73078.3,-12.17,-14.89,-15.75,0,*67
1489198031.99,58693,7.56,73076.5,-12.19,-14.93,-15.63,0,*64
1489198033.25,58694,7.56,73082.0,-12.19,-14.97,-15.75,0,*60
1489198034.54,58695,7.56,73084.0,-12.19,-15.39,-16.65,0,*66
1489198035.78,58696,7.63,73090.8,-12.19,-15.75,-16.89,0,*6F
1489198037.07,58697,7.56,73084.5,-12.19,-15.89,-17.17,0,*6B
1489198038.33,58698,7.63,73094.8,-12.21,-16.23,-17.03,0,*69
1489198039.6,58699,7.56,73088.0,-12.19,-15.95,-16.27,0,*6A
1489198040.87,58700,7.56,73082.8,-12.19,-15.67,-15.81,0,*69
1489198042.08,58701,7.56,73082.5,-12.17,-15.29,-15.71,0,*63
1489198043.35,58702,7.63,73080.8,-12.17,-15.35,-15.89,0,*6A
1489198044.56,58703,7.63,73080.8,-12.17,-15.07,-16.03,0,*6B
1489198045.83,58704,7.56,73086.0,-12.17,-15.35,-17.07,0,*68
1489198047.09,58705,7.63,73078.5,-12.17,-16.51,-19.61,0,*66
1489198048.38,58706,7.56,73074.8,-12.19,-17.93,-20.35,0,*6F
1489198049.62,58707,7.56,73084.5,-12.13,-18.07,-19.41,0,*6F
1489198050.88,58708,7.56,73078.8,-12.17,-17.41,-18.89,0,*6C
1489198052.09,58709,7.63,73076.5,-12.13,-17.31,-18.83,0,*64
1489198053.33,58710,7.56,73076.8,-12.17,-17.11,-18.11,0,*61
1489198054.55,58711,7.63,73076.5,-12.13,-16.59,-17.35,0,*60
1489198055.78,58712,7.63,73074.3,-12.13,-16.27,-17.31,0,*6E
1489198057.05,58713,7.63,73078.0,-12.13,-16.13,-17.93,0,*60
1489198058.26,58714,7.63,73082.8,-12.13,-16.97,-18.73,0,*6A
1489198059.54,58715,7.56,73078.5,-12.11,-17.63,-18.55,0,*67
1489198060.8,58716,7.63,73068.5,-12.11,-17.93,-18.41,0,*6E
1489198062.04,58717,7.56,73072.3,-12.13,-17.59,-18.11,0,*6E
1489198063.33,58718,7.56,73074.8,-12.11,-17.03,-17.63,0,*66
1489198064.6,58719,7.63,73076.0,-12.11,-16.55,-17.17,0,*66
1489198065.85,58720,7.63,73080.5,-12.13,-16.45,-17.07,0,*6E
1489198067.06,58721,7.56,73084.8,-12.17,-16.37,-16.79,0,*66
1489198068.3,58722,7.56,73074.8,-12.13,-16.31,-16.75,0,*6B
1489198069.54,58723,7.56,73044.8,-12.11,-16.79,-17.31,0,*65
1489198070.77,58724,7.56,73070.3,-12.11,-17.31,-18.25,0,*65
1489198072.01,58725,7.56,73078.0,-12.09,-17.97,-20.05,0,*68
1489198073.25,58726,7.63,73080.5,-12.11,-19.47,-21.13,0,*67
1489198074.48,58727,7.63,73086.8,-12.11,-19.91,-21.13,0,*6D
1489198075.71,58728,7.56,73088.3,-12.09,-20.05,-20.99,0,*6F
1489198076.99,58729,7.63,73092.8,-12.11,-19.61,-20.25,0,*68
1489198078.25,58730,7.56,73056.8,-12.09,-18.89,-19.41,0,*66
1489198079.49,58731,7.56,73060.8,-12.11,-18.49,-19.17,0,*61
1489198080.7,58732,7.56,73060.8,-12.09,-18.69,-19.95,0,*63
1489198081.97,58733,7.63,73060.3,-12.11,-19.47,-20.83,0,*6B
1489198083.24,58734,7.63,73070.0,-12.09,-19.65,-20.49,0,*63
1489198084.48,58735,7.63,73062.0,-12.09,-18.83,-19.41,0,*69
1489198085.71,58736,7.63,73070.3,-12.09,-17.79,-18.21,0,*67
1489198086.97,58737,7.56,73068.5,-12.11,-17.69,-19.27,0,*69
1489198088.18,58738,7.63,73070.3,-12.09,-18.69,-20.09,0,*66
1489198089.42,58739,7.56,73060.3,-12.09,-19.03,-20.19,0,*6B
1489198090.65,58740,7.56,73078.3,-12.09,-18.41,-19.81,0,*69
1489198091.92,58741,7.63,73082.8,-12.09,-19.31,-20.83,0,*66
1489198093.17,58742,7.63,73066.3,-12.09,-19.13,-19.57,0,*66
1489198094.38,58743,7.63,73062.0,-12.09,-18.11,-18.69,0,*68
1489198095.64,58744,7.63,73056.3,-12.09,-17.45,-17.59,0,*6D
1489198096.85,58745,7.63,73074.3,-12.09,-16.75,-17.31,0,*60